• In Hungary
  • List of Countries
  • For 7 days
  • Water Temperature
  • Satellite Maps
  • Weather Map
  • News
  • Weather Widgets
  • user-avatar
    Login

    Hourly Weather Dudenevo

    Today, 14 November, Wednesday

    Time Temperature Precipitation Wind Pressure Humidity
    00:00 -3°C° 0 mm 6 mps 756 mmHg 46%
    01:00 -3°C° 0 mm 6 mps 756 mmHg 46%
    02:00 -3°C° 0 mm 6 mps 755 mmHg 45%
    03:00 -3°C° 0.1 mm 6 mps 755 mmHg 49%
    04:00 -4°C° 0.1 mm 6 mps 754 mmHg 53%
    05:00 -4°C° 0.1 mm 5 mps 754 mmHg 57%
    06:00 -4°C° 0.2 mm 5 mps 754 mmHg 59%
    07:00 -4°C° 0.2 mm 5 mps 754 mmHg 62%
    08:00 -4°C° 0 mm 5 mps 754 mmHg 64%
    09:00 -4°C° 0.1 mm 5 mps 754 mmHg 63%
    10:00 -2°C° 0.1 mm 5 mps 754 mmHg 62%
    11:00 -2°C° 0.1 mm 5 mps 754 mmHg 60%
    12:00 -2°C° 0.1 mm 4 mps 754 mmHg 62%
    13:00 -2°C° 0.1 mm 4 mps 754 mmHg 63%
    14:00 -2°C° 0 mm 4 mps 754 mmHg 62%
    15:00 -2°C° 0 mm 4 mps 754 mmHg 63%
    16:00 -1°C° 0 mm 3 mps 755 mmHg 65%
    17:00 -2°C° 0 mm 3 mps 755 mmHg 66%
    18:00 -2°C° 0 mm 3 mps 755 mmHg 69%
    19:00 -2°C° 0 mm 3 mps 755 mmHg 71%
    20:00 -3°C° 0 mm 2 mps 756 mmHg 74%
    21:00 -3°C° 0 mm 2 mps 756 mmHg 76%
    22:00 -3°C° 0 mm 2 mps 756 mmHg 78%
    23:00 -3°C° 0 mm 2 mps 757 mmHg 79%

    Tomorrow, 15 November, Thursday

    Time Temperature Precipitation Wind Pressure Humidity
    00:00 -3°C° 0 mm 2 mps 757 mmHg 80%
    01:00 -3°C° 0 mm 2 mps 757 mmHg 81%
    02:00 -3°C° 0 mm 2 mps 758 mmHg 82%
    03:00 -2°C° 0 mm 2 mps 758 mmHg 82%
    04:00 -2°C° 0 mm 2 mps 758 mmHg 82%
    05:00 -2°C° 0 mm 2 mps 759 mmHg 82%
    06:00 -2°C° 0 mm 2 mps 759 mmHg 82%
    07:00 -2°C° 0 mm 2 mps 760 mmHg 82%
    08:00 -2°C° 0 mm 2 mps 760 mmHg 82%
    09:00 -1°C° 0 mm 2 mps 761 mmHg 80%
    10:00 -1°C° 0 mm 2 mps 761 mmHg 78%
    11:00 -1°C° 0 mm 2 mps 762 mmHg 75%
    12:00 -1°C° 0 mm 2 mps 762 mmHg 76%
    13:00 +2°C° 0 mm 1 mps 762 mmHg 76%
    14:00 +2°C° 0 mm 1 mps 763 mmHg 76%
    15:00 +1°C° 0 mm 1 mps 763 mmHg 78%
    16:00 0°C° 0 mm 1 mps 763 mmHg 80%
    17:00 0°C° 0 mm 1 mps 764 mmHg 82%
    18:00 0°C° 0 mm 1 mps 764 mmHg 82%
    19:00 0°C° 0 mm 1 mps 765 mmHg 82%
    20:00 -1°C° 0 mm 1 mps 765 mmHg 82%
    21:00 -1°C° 0 mm 1 mps 765 mmHg 83%
    22:00 -1°C° 0 mm 1 mps 766 mmHg 83%
    23:00 -1°C° 0 mm 1 mps 766 mmHg 84%

    Day after tomorrow, 16 November, Friday

    Time Temperature Precipitation Wind Pressure Humidity
    00:00 -1°C° 0 mm 1 mps 766 mmHg 84%
    01:00 -1°C° 0 mm 1 mps 767 mmHg 84%
    02:00 -1°C° 0 mm 1 mps 767 mmHg 84%
    03:00 -1°C° 0 mm 1 mps 767 mmHg 85%
    04:00 -1°C° 0 mm 1 mps 767 mmHg 85%
    05:00 -1°C° 0 mm 1 mps 767 mmHg 85%
    06:00 -1°C° 0 mm 1 mps 768 mmHg 85%
    07:00 -1°C° 0 mm 1 mps 768 mmHg 85%
    08:00 -1°C° 0 mm 1 mps 768 mmHg 85%
    09:00 0°C° 0 mm 1 mps 768 mmHg 81%
    10:00 +1°C° 0 mm 1 mps 769 mmHg 77%
    11:00 +2°C° 0 mm 1 mps 769 mmHg 74%
    12:00 +2°C° 0 mm 1 mps 769 mmHg 75%
    13:00 +1°C° 0 mm 1 mps 769 mmHg 76%
    14:00 +1°C° 0 mm 1 mps 769 mmHg 77%
    15:00 +1°C° 0 mm 1 mps 769 mmHg 80%
    16:00 0°C° 0 mm 1 mps 769 mmHg 82%
    17:00 -2°C° 0 mm 2 mps 768 mmHg 85%
    18:00 -3°C° 0 mm 2 mps 768 mmHg 85%
    19:00 -3°C° 0 mm 2 mps 768 mmHg 86%
    20:00 -3°C° 0 mm 2 mps 768 mmHg 86%
    21:00 -3°C° 0 mm 2 mps 768 mmHg 87%
    22:00 -3°C° 0 mm 2 mps 768 mmHg 87%
    23:00 -3°C° 0 mm 2 mps 768 mmHg 87%

    17 November, Saturday

    Time Temperature Precipitation Wind Pressure Humidity
    00:00 -3°C° 0 mm 2 mps 768 mmHg 88%
    01:00 -3°C° 0 mm 2 mps 768 mmHg 88%
    02:00 -3°C° 0 mm 2 mps 767 mmHg 89%
    03:00 -3°C° 0 mm 2 mps 767 mmHg 89%
    04:00 -3°C° 0 mm 2 mps 767 mmHg 90%
    05:00 -3°C° 0 mm 2 mps 766 mmHg 91%
    06:00 -4°C° 0 mm 3 mps 766 mmHg 90%
    07:00 -2°C° 0 mm 3 mps 765 mmHg 90%
    08:00 -2°C° 0 mm 3 mps 765 mmHg 90%
    09:00 -2°C° 0 mm 3 mps 764 mmHg 87%
    10:00 -2°C° 0 mm 4 mps 763 mmHg 84%
    11:00 -1°C° 0 mm 4 mps 763 mmHg 81%
    12:00 -1°C° 0.1 mm 4 mps 762 mmHg 82%
    13:00 -1°C° 0.1 mm 4 mps 762 mmHg 84%
    14:00 0°C° 0.1 mm 3 mps 761 mmHg 85%
    15:00 -1°C° 0.1 mm 4 mps 760 mmHg 86%
    16:00 -1°C° 0.1 mm 4 mps 759 mmHg 87%
    17:00 -1°C° 0.1 mm 4 mps 758 mmHg 88%
    18:00 -1°C° 0.1 mm 4 mps 758 mmHg 89%
    19:00 -1°C° 0.1 mm 4 mps 757 mmHg 90%
    20:00 0°C° 0.1 mm 4 mps 756 mmHg 91%
    21:00 0°C° 0.1 mm 4 mps 755 mmHg 92%
    22:00 0°C° 0.1 mm 4 mps 755 mmHg 93%
    23:00 +1°C° 0.1 mm 3 mps 754 mmHg 93%

    18 November, Sunday

    Time Temperature Precipitation Wind Pressure Humidity
    00:00 +1°C° 0.1 mm 3 mps 753 mmHg 94%
    01:00 +1°C° 0.1 mm 3 mps 753 mmHg 94%
    02:00 +1°C° 0.1 mm 3 mps 752 mmHg 95%
    03:00 +1°C° 0.3 mm 3 mps 752 mmHg 94%
    04:00 +1°C° 0.3 mm 3 mps 751 mmHg 94%
    05:00 +1°C° 0.3 mm 3 mps 751 mmHg 94%
    06:00 +1°C° 0.1 mm 3 mps 750 mmHg 94%
    07:00 +1°C° 0.1 mm 3 mps 750 mmHg 94%
    08:00 +1°C° 0.1 mm 3 mps 750 mmHg 94%
    09:00 +1°C° 0.2 mm 3 mps 749 mmHg 93%
    10:00 +1°C° 0.2 mm 3 mps 749 mmHg 92%
    11:00 +1°C° 0.2 mm 3 mps 749 mmHg 91%
    12:00 +1°C° 0.3 mm 3 mps 749 mmHg 91%
    13:00 +2°C° 0.3 mm 2 mps 749 mmHg 92%
    14:00 +2°C° 0.3 mm 2 mps 749 mmHg 93%
    15:00 +1°C° 0.2 mm 3 mps 750 mmHg 94%
    16:00 +1°C° 0.2 mm 3 mps 750 mmHg 95%
    17:00 +1°C° 0.2 mm 3 mps 750 mmHg 95%
    18:00 +1°C° 0.2 mm 3 mps 751 mmHg 94%
    19:00 0°C° 0.2 mm 4 mps 751 mmHg 94%
    20:00 0°C° 0.2 mm 4 mps 752 mmHg 93%
    21:00 0°C° 0.3 mm 4 mps 752 mmHg 93%
    22:00 0°C° 0.3 mm 4 mps 753 mmHg 92%
    23:00 -1°C° 0.3 mm 4 mps 753 mmHg 92%

    19 November, Monday

    Time Temperature Precipitation Wind Pressure Humidity
    00:00 -1°C° 0.3 mm 4 mps 754 mmHg 92%
    01:00 -1°C° 0.3 mm 4 mps 754 mmHg 92%
    02:00 -1°C° 0.3 mm 4 mps 754 mmHg 91%
    03:00 -1°C° 0.2 mm 4 mps 754 mmHg 91%
    04:00 -1°C° 0.2 mm 4 mps 755 mmHg 91%
    05:00 -1°C° 0.2 mm 4 mps 755 mmHg 91%
    06:00 -1°C° 0.1 mm 4 mps 756 mmHg 91%
    07:00 -1°C° 0.1 mm 4 mps 756 mmHg 90%
    08:00 -1°C° 0.1 mm 4 mps 757 mmHg 90%
    09:00 -1°C° 0 mm 4 mps 757 mmHg 88%
    10:00 -1°C° 0 mm 4 mps 757 mmHg 87%
    11:00 -1°C° 0 mm 4 mps 758 mmHg 86%
    12:00 -1°C° 0 mm 4 mps 758 mmHg 86%
    13:00 -1°C° 0 mm 4 mps 758 mmHg 87%
    14:00 0°C° 0 mm 3 mps 759 mmHg 87%
    15:00 0°C° 0 mm 3 mps 759 mmHg 88%
    16:00 -1°C° 0 mm 3 mps 759 mmHg 90%
    17:00 -1°C° 0 mm 3 mps 759 mmHg 91%
    18:00 -1°C° 0 mm 3 mps 759 mmHg 92%
    19:00 -2°C° 0 mm 3 mps 759 mmHg 93%
    20:00 -2°C° 0 mm 3 mps 759 mmHg 93%
    21:00 -2°C° 0 mm 3 mps 760 mmHg 94%
    22:00 -3°C° 0 mm 2 mps 760 mmHg 94%
    23:00 -3°C° 0 mm 2 mps 760 mmHg 95%
    Show more